TITAN 3C TRANSTAGE DEB, 3386

Orbit data source: Space-Track

TITAN 3C TRANSTAGE DEB, 3386 is space debris in LEO originally from a launch on Fri, 15 Oct 1965 UTC launched from the Air Force Eastern Test Range (AFETR). Debris objects in space refer to the collection of defunct objects orbiting the Earth. Examples of debris include non-operational satellites, rocket bodies, and fragments generated from explosions, collisions, or faulty payload assembly.

Loading next visibility...
Identifier
3386, 1965-082MY
Orbit
LEO
Country
Flag of USUS
Related business
Manufacturer
Unknown
Mission
Spacecraft
Bus & Motor
Unknown
Mass
Unknown
Launch date (UTC)
1965-10-15 (60 years ago)
Launch vehicle
Unknown
Launch site
Air Force Eastern Test Range (AFETR)
Object type
Payload
Rocket body
Debris
Shape & HBR
Unknown shape, 0.1 m
Radar Cross Section
Small (<0.1 m²)

Expand to show TLE details & history
Last TLE update: 1 day ago

TLE from 1 day ago
0 TITAN 3C TRANSTAGE DEB
1 03386U 65082MY  25286.33863876  .00006107  00000-0  52368-3 0  9999
2 03386  32.3715 278.1097 0005264  65.7891 294.3318 14.96398080208794
Epoch: 2025-10-13T08:07Z
TLE epoch observation values (Epoch: 2025-10-13T08:07:38.388Z)
Latitude
-0.00003°
Longitude
134.05685°
Altitude
575.183 km
Speed
7.576 km/s
True Right ascension
18h 32m 26s
True Declination
0° 00' 00"
Sunlit
Object was in daylight at epoch
Visualization orbit readout
Latitude
Unknown
Longitude
Unknown
Altitude
Unknown
Speed
Unknown
Apparent Right ascension
Unknown
Apparent Declination
Unknown
Sunlit
N/A
Visualization observer readout
Local Sidereal Time
02:50:24
Azimuth
Unknown
Elevation
Unknown
Doppler factor
Unknown
Orbital elements
Apogee altitude
585.315 km
Perigee altitude
577.988 km
Semi-major axis
6,959.788 km
Eccentricity
0.00053
Inclination
32.3715°
RAAN
278.1097°
Arg. of periapsis
65.7891°
True anomaly
294.27682°
Mean anomaly
294.3318°
Eccentric anomaly
294.30431°
Mean motion
3.73808 °/min
Orbital period
96.31 mins
BSTAR
0.00052368

Documentation

Showing up to 5 results
|